CAPE
0 0 0 0 0 0 0 0 0 0 9 10 0 0 0 0 1 0 555 1303 1438 1461 1277 1210 1070 1203 1799 1879 1870 1801 1627 1695
0 0 0 0 0 0 0 0 0 6 12 14 4 1 0 1 1 0 1 1384 1603 1659 1444 1340 1250 1135 1208 1732 1787 1947 1889 1737
0 0 0 0 0 0 0 0 0 0 39 9 0 0 0 0 10 3 163 1161 1606 1714 1587 1525 1529 1434 1436 1778 1940 2044 2055 2137
0 0 0 0 0 0 1 5 4 2 5 10 0 0 0 0 33 219 325 730 1289 1486 1717 1643 1712 1685 1713 1952 2070 2149 2148 2083
0 0 0 0 1 0 1 0 7 24 2 6 0 0 0 0 167 417 561 603 701 906 1551 1640 1665 1880 1882 2200 2254 2405 2323 2304
0 0 0 0 0 0 0 0 0 0 4 2 57 73 0 0 13 148 21 0 142 406 1065 1580 1574 1749 2006 2096 2425 2487 2469 2310
0 0 0 0 0 0 0 0 0 0 87 529 334 285 43 0 4 32 32 6 17 277 140 994 1704 1633 2057 2168 2242 2565 2553 2406
0 0 0 0 0 0 0 20 4 1 266 182 285 16 7 11 4 20 23 0 0 0 9 515 2410 2047 2388 2300 2313 2586 2644 2695
0 0 0 0 0 0 0 10 3 20 9 0 46 0 1 0 0 3 0 0 0 19 1 1114 2374 2962 3065 3152 3030 2762 2835 2910
0 0 0 0 0 0 0 0 5 0 0 0 15 25 0 50 4 0 0 0 0 0 0 97 1274 2829 2726 2692 2876 3568 3591 3347
0 0 0 0 0 0 0 0 18 8 0 0 0 10 31 1 120 108 75 0 2 18 4 169 124 1393 2259 2947 3204 3262 3215 3741
0 0 0 0 0 0 0 0 0 0 0 0 0 0 0 47 7 0 5 8 0 0 0 0 280 328 1467 2121 2118 2694 3068 3306
0 0 0 0 0 0 0 11 69 3 0 9 12 83 26 78 39 10 0 0 0 13 0 1 553 833 1666 1580 1359 1868 2643 2844
0 0 0 0 0 0 0 0 0 0 0 0 6 14 15 15 1 1 28 5 6 69 26 35 387 508 1204 1912 1779 2115 2503 2017
0 0 0 0 0 0 0 0 0 0 0 5 13 30 19 26 3 0 0 1 0 0 0 97 207 348 397 1412 1940 1400 2114 2099
0 0 0 0 0 0 0 0 0 0 7 0 0 0 6 23 25 22 0 17 9 12 0 0 89 60 65 76 290 830 1485 1761
0 0 0 0 0 0 0 0 0 0 0 1 0 0 5 16 9 13 2 16 12 1 10 0 22 284 101 0 51 53 177 1167
0 0 0 0 0 14 8 2 0 0 0 0 5 2 13 17 24 19 0 8 16 2 0 1 17 7 320 297 215 55 19 115
0 0 0 10 0 0 0 0 0 0 0 0 0 0 1 1 0 0 0 0 2 11 9 3 6 204 42 41 222 213 232 240
CIN
0 0 0 0 0 0 0 0 0 0 -16 -18 0 0 0 0 -5 0 -74 -125 -176 -206 -209 -179 -153 -162 -139 -143 -135 -118 -103 -79
0 0 0 0 0 0 0 0 0 -3 -4 -30 -68 -21 0 -12 -4 0 -21 -106 -150 -166 -174 -156 -158 -157 -161 -170 -165 -151 -136 -132
0 0 0 0 0 0 0 0 0 0 -10 -20 0 0 0 0 -80 -41 -29 -80 -115 -117 -144 -142 -149 -155 -165 -183 -186 -176 -164 -146
0 0 0 -3 0 0 -4 -41 -22 -11 -11 -97 -4 0 0 0 -121 -38 -36 -56 -76 -99 -133 -120 -136 -144 -161 -189 -195 -203 -188 -172
0 0 0 0 -20 0 -22 -2 -42 -39 -9 -86 0 -7 -63 0 -76 -195 -95 -73 -61 -89 -94 -113 -114 -137 -152 -171 -195 -200 -181 -177
0 0 0 0 0 0 0 0 0 0 -61 -72 -173 -186 -71 0 -275 -260 -432 -30 -361 -254 -106 -100 -112 -116 -128 -157 -177 -185 -189 -184
0 0 0 0 0 0 0 0 0 0 -56 -109 -135 -128 -326 0 -516 -400 -286 -436 -379 -479 -437 -175 -98 -116 -127 -135 -156 -185 -165 -175
0 0 0 0 0 0 0 -108 -83 -1 -82 -96 -94 -212 -323 -404 -479 -470 -496 0 0 0 -138 -324 -132 -108 -95 -114 -115 -142 -162 -149
0 0 0 0 0 0 0 -129 -33 -120 -43 0 -106 0 -0 0 0 -266 0 0 0 -81 -21 -49 -97 -54 -40 -59 -64 -79 -85 -91
0 0 0 0 0 0 0 0 -208 0 0 0 -84 -53 0 -88 -190 0 0 0 0 0 0 -194 -115 -31 -24 -37 -45 -28 -25 -39
0 0 0 0 0 0 0 0 -247 -199 -53 0 0 -20 -84 -111 -65 -121 -143 0 -45 -208 -50 -70 -100 -91 -40 -12 -15 -25 -22 -10
0 0 0 0 0 0 0 0 0 0 0 0 -14 0 0 -44 -145 0 -127 -166 0 0 0 0 -113 -436 -22 -14 -11 -14 -17 -16
0 0 0 0 0 0 0 -160 -82 -44 0 -46 -102 -16 -16 -6 -76 -105 0 0 0 -167 -4 -10 -96 -91 -19 -7 -24 -27 -25 -25
0 0 0 0 0 0 0 0 0 0 0 0 -67 -81 -62 -43 -7 -7 -84 -146 -175 -82 -133 -160 -67 -61 -51 -23 -30 -34 -50 -58
0 0 0 0 0 0 0 0 0 0 0 -88 -145 -89 -71 -55 -26 0 -2 -8 0 0 0 -58 -94 -62 -43 -32 -33 -49 -30 -59
0 0 0 0 0 0 0 0 0 0 -3 -1 0 0 -49 -51 -67 -43 -1 -57 -22 -4 0 0 -45 -145 -109 -100 -100 -59 -26 -25
0 0 0 0 0 0 0 0 0 0 0 -0 -6 0 -4 -2 -12 -13 -7 -38 -53 -15 -51 0 -42 -12 -56 0 -93 -87 -97 -22
0 0 0 0 0 -2 -4 -3 0 0 0 0 0 -0 -0 -0 -1 -3 -1 -50 -65 -62 0 -5 -32 -14 -10 -17 -23 -71 -99 -94
0 0 0 -8 -0 -1 0 0 0 0 0 0 0 -1 -4 -5 -0 -0 -0 -6 -71 -71 -61 -44 -37 -20 -83 -50 -19 -32 -35 -44
Wind_Speed
13 12 10 16 15 15 21 25 25 22 24 17 13 10 11 16 10 6 9 17 18 19 19 19 18 20 19 20 20 20 20 18
13 12 10 10 8 23 20 22 25 19 20 18 16 20 21 20 28 2 3 15 17 17 18 18 19 20 20 20 20 19 19 18
22 9 24 13 8 20 11 17 26 30 19 16 17 24 26 31 31 12 2 11 15 15 16 17 16 18 20 20 20 19 18 16
27 23 21 22 25 21 27 26 27 28 24 21 25 29 27 30 30 26 5 10 14 13 14 15 15 16 18 18 19 19 18 16
27 24 30 29 27 28 30 26 28 28 28 26 35 33 32 34 29 23 21 10 13 12 15 15 15 16 17 15 17 17 18 15
23 30 32 33 34 33 32 33 35 32 36 32 28 32 31 31 29 23 22 24 23 19 13 15 17 14 16 15 13 14 16 17
28 32 34 35 35 36 37 38 40 41 29 23 26 28 29 27 27 26 35 32 30 30 41 42 17 16 14 15 15 14 15 16
31 31 33 35 35 31 32 33 34 33 25 26 24 28 30 30 28 28 28 31 27 34 59 49 20 13 12 13 13 14 16 18
29 28 30 27 30 29 28 29 29 29 33 32 30 31 31 30 29 28 26 25 28 30 56 21 12 6 9 7 8 9 11 9
24 27 26 19 25 27 26 29 30 32 34 35 34 26 28 29 29 28 25 26 30 35 45 27 17 9 9 12 12 12 11 10
21 22 22 25 32 30 30 31 31 36 37 36 36 33 31 30 29 29 27 26 27 29 38 35 26 20 14 16 16 16 17 13
21 24 26 24 29 28 23 28 30 35 38 39 39 41 36 30 29 31 30 28 26 30 31 36 32 34 16 19 19 18 18 17
20 21 20 21 30 27 27 29 32 32 36 33 35 35 30 31 29 29 30 30 31 29 27 32 33 29 23 23 20 18 18 18
21 23 22 28 25 25 26 32 35 35 37 38 38 36 35 32 33 33 32 30 32 32 31 30 28 28 27 25 24 23 19 16
21 19 22 28 27 31 34 34 37 42 43 42 43 39 37 36 37 37 35 32 28 32 34 31 28 25 27 26 26 25 24 20
24 24 31 33 32 33 33 33 39 38 39 42 45 44 43 38 39 41 39 38 37 32 33 33 32 34 34 34 31 31 29 27
24 22 32 24 31 31 33 34 32 39 40 40 43 44 41 39 38 37 36 38 38 38 37 36 34 34 33 34 36 35 34 32
24 28 24 25 31 32 34 36 37 40 44 41 42 45 42 39 35 34 36 38 41 43 42 40 38 35 33 32 31 34 36 34
23 21 21 18 29 36 37 38 40 40 40 44 42 40 41 40 37 37 35 34 38 43 45 42 40 38 34 33 32 33 35 34
Wind_Direction
56 37 69 4 188 192 223 251 267 313 287 320 305 17 10 343 352 153 152 159 156 153 151 148 146 148 148 149 149 151 156 156
99 40 126 118 154 288 301 286 269 323 338 325 320 328 312 328 314 25 148 164 159 156 155 153 151 152 151 151 151 148 148 151
267 77 306 353 24 296 316 325 298 285 326 324 325 324 312 318 309 307 212 165 162 160 158 156 153 152 154 152 150 150 148 145
261 273 352 316 313 332 310 307 302 301 310 312 318 320 313 316 313 307 194 168 165 166 165 163 160 160 159 156 154 153 152 149
298 301 308 321 319 302 314 313 303 311 310 305 310 316 311 304 312 317 300 231 180 182 179 175 169 165 165 164 163 157 153 150
311 306 317 313 313 306 306 302 298 302 305 311 317 323 310 320 308 303 319 297 291 290 212 192 179 176 172 172 173 170 161 158
313 308 307 309 310 305 305 300 293 291 311 322 322 323 323 320 327 310 288 295 285 293 272 253 196 182 179 178 176 176 178 168
317 319 315 312 314 315 316 319 309 303 303 321 323 327 326 323 324 327 315 304 307 309 282 242 233 206 195 184 180 179 180 183
323 325 321 319 322 320 315 322 319 311 311 315 319 326 323 322 318 315 321 317 307 307 291 262 253 242 235 246 228 201 199 212
338 339 331 340 345 336 327 319 315 311 317 317 317 323 334 326 317 324 322 323 314 311 305 311 288 273 270 272 277 278 264 252
345 341 337 335 337 336 332 324 324 305 306 312 317 317 319 332 330 317 320 320 319 313 307 326 337 301 309 290 281 279 282 282
351 343 337 343 345 343 343 330 341 320 307 304 307 299 309 322 325 318 314 315 313 311 317 314 320 327 333 293 281 284 285 287
354 349 355 358 348 347 340 335 343 332 322 316 305 308 313 315 319 315 314 313 305 306 295 289 298 313 321 304 303 303 302 299
358 352 350 0 350 353 345 333 330 330 320 309 310 310 316 322 314 309 310 313 300 299 296 302 305 305 296 301 312 312 312 310
353 5 4 357 352 343 337 335 327 317 313 311 303 308 308 309 305 310 307 304 309 299 294 297 297 300 297 296 300 304 298 302
343 347 344 344 342 341 341 339 329 326 319 312 303 300 301 304 304 302 299 300 300 297 293 293 294 285 287 288 293 295 293 292
343 349 340 359 351 349 346 342 340 327 321 319 308 302 306 306 305 304 300 293 293 293 291 290 290 288 287 289 286 288 288 288
345 347 352 353 351 349 346 343 338 332 317 319 313 298 301 308 309 306 301 296 288 284 285 286 285 285 285 288 291 288 285 285
353 359 357 3 359 353 352 345 336 336 330 313 313 313 307 305 308 305 304 302 294 286 279 282 283 282 281 284 288 288 286 285